| time (UTC) | temp C | wind direction | speed KPH | gust KPH | rain 1hr cm | rain 24hr cm | rain mn cm | humidity % | barometer mb |
| 20260505004502 | 18 | 272 | 0.0 | 0.0 | 0.00 | 0.00 | 0.00 | 31 | 998.8 |
| 20260505003059 | 17 | 272 | 0.0 | 14.5 | 0.00 | 0.00 | 0.00 | 33 | 998.9 |
| 20260505001600 | 18 | 273 | 11.3 | 25.7 | 0.00 | 0.00 | 0.00 | 28 | 999.0 |
| 20260505000108 | 18 | 266 | 11.3 | 27.4 | 0.00 | 0.00 | 0.00 | 27 | 998.9 |
| 20260504234629 | 18 | 269 | 22.5 | 38.6 | 0.00 | 0.00 | 0.00 | 28 | 998.9 |
| 20260504233057 | 17 | 267 | 16.1 | 25.7 | 0.00 | 0.00 | 0.00 | 28 | 999.1 |
| 20260504231603 | 17 | 263 | 16.1 | 22.5 | 0.00 | 0.00 | 0.00 | 32 | 999.3 |
| 20260504230058 | 17 | 217 | 0.0 | 16.1 | 0.00 | 0.00 | 0.00 | 29 | 999.3 |
| 20260504224555 | 18 | 286 | 0.0 | 8.0 | 0.00 | 0.00 | 0.00 | 30 | 999.4 |
| 20260504223052 | 18 | 286 | 0.0 | 14.5 | 0.00 | 0.00 | 0.00 | 28 | 999.6 |
| 20260504221557 | 17 | 292 | 0.0 | 20.9 | 0.00 | 0.00 | 0.00 | 29 | 999.9 |
| 20260504220047 | 17 | 311 | 6.4 | 17.7 | 0.00 | 0.00 | 0.00 | 31 | 1000.2 |
| 20260504214546 | 17 | 296 | 16.1 | 24.1 | 0.00 | 0.00 | 0.00 | 31 | 1000.3 |
| 20260504213045 | 18 | 302 | 6.4 | 16.1 | 0.00 | 0.00 | 0.00 | 31 | 1000.5 |
| 20260504211550 | 17 | 79 | 8.0 | 27.4 | 0.00 | 0.00 | 0.00 | 35 | 1000.9 |
| 20260504204553 | 16 | 271 | 19.3 | 37.0 | 0.00 | 0.00 | 0.00 | 31 | 1000.7 |
| 20260504203046 | 17 | 284 | 22.5 | 29.0 | 0.00 | 0.00 | 0.00 | 29 | 1000.4 |
| 20260504201546 | 18 | 272 | 6.4 | 17.7 | 0.00 | 0.00 | 0.00 | 28 | 1000.4 |
| 20260504200038 | 18 | 258 | 11.3 | 16.1 | 0.00 | 0.00 | 0.00 | 26 | 1000.5 |
| 20260504194556 | 17 | 265 | 8.0 | 20.9 | 0.00 | 0.00 | 0.00 | 28 | 1000.7 |
| 20260504193034 | 17 | 284 | 0.0 | 0.0 | 0.00 | 0.00 | 0.00 | 31 | 1000.9 |
| 20260504191542 | 17 | 284 | 0.0 | 4.8 | 0.00 | 0.00 | 0.00 | 32 | 1001.1 |
| 20260504190035 | 17 | 283 | 1.6 | 11.3 | 0.00 | 0.00 | 0.00 | 33 | 1001.2 |
| 20260504184537 | 17 | 232 | 4.8 | 14.5 | 0.00 | 0.00 | 0.00 | 28 | 1001.2 |
| 20260504183028 | 18 | 271 | 1.6 | 4.8 | 0.00 | 0.00 | 0.00 | 27 | 1001.3 |
| 20260504181526 | 17 | 234 | 1.6 | 16.1 | 0.00 | 0.00 | 0.00 | 29 | 1001.5 |
| 20260504180028 | 17 | 262 | 1.6 | 8.0 | 0.00 | 0.00 | 0.00 | 29 | 1001.8 |
| 20260504174522 | 17 | 74 | 3.2 | 12.9 | 0.00 | 0.00 | 0.00 | 34 | 1001.8 |
| 20260504173021 | 17 | 65 | 3.2 | 12.9 | 0.00 | 0.00 | 0.00 | 37 | 1002.1 |
| 20260504171514 | 15 | 72 | 4.8 | 8.0 | 0.00 | 0.00 | 0.00 | 43 | 1002.2 |
| 20260504081549 | 4 | 186 | 0.0 | 6.4 | 0.00 | 0.00 | 0.00 | 66 | 1004.3 |
| 20260504050024 | 7 | 176 | 0.0 | 8.0 | 0.00 | 0.00 | 0.00 | 55 | 1005.0 |
| 20260504044523 | 9 | 150 | 0.0 | 4.8 | 0.00 | 0.00 | 0.00 | 47 | 1005.0 |
| 20260504043022 | 11 | 150 | 3.2 | 11.3 | 0.00 | 0.00 | 0.00 | 42 | 1005.1 |
| 20260504041522 | 10 | 96 | 8.0 | 14.5 | 0.00 | 0.00 | 0.00 | 44 | 1005.0 |
| 20260504040021 | 9 | 113 | 3.2 | 16.1 | 0.00 | 0.00 | 0.00 | 48 | 1005.1 |
| 20260504034535 | 10 | 100 | 6.4 | 12.9 | 0.00 | 0.00 | 0.00 | 45 | 1005.0 |
| 20260504033026 | 12 | 165 | 0.0 | 0.0 | 0.00 | 0.00 | 0.00 | 40 | 1004.9 |
| 20260504031520 | 12 | 166 | 0.0 | 4.8 | 0.00 | 0.00 | 0.00 | 39 | 1004.9 |
| 20260504030029 | 12 | 177 | 1.6 | 11.3 | 0.00 | 0.00 | 0.00 | 39 | 1004.7 |
| 20260504024519 | 13 | 192 | 6.4 | 12.9 | 0.00 | 0.00 | 0.00 | 37 | 1004.6 |
| 20260504023019 | 13 | 181 | 3.2 | 16.1 | 0.00 | 0.00 | 0.00 | 35 | 1004.5 |
| 20260504021518 | 14 | 202 | 0.0 | 9.7 | 0.00 | 0.00 | 0.00 | 35 | 1004.3 |
| 20260504020017 | 15 | 220 | 1.6 | 9.7 | 0.00 | 0.00 | 0.00 | 32 | 1004.3 |
| 20260504014520 | 16 | 248 | 11.3 | 19.3 | 0.00 | 0.00 | 0.00 | 29 | 1004.3 |
| 20260504013016 | 17 | 242 | 12.9 | 25.7 | 0.00 | 0.00 | 0.00 | 28 | 1004.3 |
| 20260504011515 | 17 | 270 | 11.3 | 25.7 | 0.00 | 0.00 | 0.00 | 26 | 1004.5 |
| 20260504010014 | 18 | 279 | 6.4 | 20.9 | 0.00 | 0.00 | 0.00 | 29 | 1004.5 |